sat.trackr.live / text

‹ back to catalog

STARLINK-3102

NORAD 49151 · 2021-082X

PAYLOAD ACTIVE UNKNOWN

§ Identity

Operator
Country
US
Launch date
2021-09-14
Launch site
AFWTR
Launch vehicle
Mass (kg)
RCS (m²)

Purposes: comms

External: N2YO · Heavens-Above · Gunter

§ Orbital elements

Epoch: 2026-05-25T03:35:15.859104Z

Period
96.11 min
Inclination
70.0009°
Eccentricity
0.0002761
Mean motion
14.98325797 rev/d
Perigee alt
570.1 km
Apogee alt
574.0 km
Semi-major
6,950.2 km
B*
1.0451e-4
RAAN
61.6681°
Arg perigee
267.9599°
Mean anomaly
92.1244°
Rev number
25,961

§ Raw data

STARLINK-31021 49151U 21082X   26145.14948911  .00001154  00000+0  10451-3 0  99922 49151  70.0009  61.6681 0002761 267.9599  92.1244 14.98325797259619

JSON: /api/v1/satellites/49151 · /tle

For live sub-satellite position, see the globe view (requires WebGL).

§ Visibility from observer

Set your observer location to see the next 7 days of passes ≥ 10°. The values pass through the URL so the page stays shareable.

No JS? Fill the form by hand. The geolocation button needs JavaScript.